Sioux Falls, SD

1:37 PM CDT on July 27, 2016 (GMT -0500)
Foss

Weather History for KFSD - January, 2013

Change the Weather History Date:

Thursday, January 17, 2013

  Actual Average Record
Temperature  
Mean Temperature 23 °F 16 °F  
Max Temperature 33 °F 26 °F 53 °F (1923)
Min Temperature 13 °F 7 °F -30 °F (1930)
Degree Days  
Heating Degree Days 42 49  
Month to date heating degree days 776 833  
Since 1 July heating degree days 3716 3966  
Cooling Degree Days 0 0  
Month to date cooling degree days 0 0  
Year to date cooling degree days 0 0  
Moisture  
Dew Point 20 °F    
Average Humidity 77    
Maximum Humidity 92    
Minimum Humidity 52    
Precipitation  
Precipitation T in 0.02 in 0.40 in (1996)
Month to date precipitation 0.11 0.31  
Year to date precipitation 0.11 0.31  
Snow  
Snow T in 0.30 in 3.20 in (1996)
Month to date snowfall 0.1 4.2  
Since 1 July snowfall 13.9 21.1  
Snow Depth T in    
Sea Level Pressure  
Sea Level Pressure 30.36 in    
Wind  
Wind Speed 5 mph (South)    
Max Wind Speed 18 mph    
Max Gust Speed 26 mph    
Visibility 10 miles    
Events      
T = Trace of Precipitation, MM = Missing Value Source: NWS Daily Summary

Daily Weather History Graph

Daily Weather History Graph

Search for Another Location

Airport or City:

Trip Planner

Search our weather history database for the weather conditions in past years. The results will help you decide how hot, cold, wet, or windy it might be!

Date:

Astronomy

Jan. 17, 2013 Rise Set
Actual Time 7:55 AM CST 5:18 PM CST
Civil Twilight 7:24 AM CST 5:50 PM CST
Nautical Twilight 6:49 AM CST 6:25 PM CST
Astronomical Twilight 6:14 AM CST 7:00 PM CST
Moon 10:49 AM CST (1/17) No Moon Set
Length of Visible Light 10h 26m
Length of Day
9h 23m
Waxing Crescent, 38% of the Moon is Illuminated
Jan 17
Waxing Crescent
Jan 18
First Quarter
Jan 26
Full
Feb 3
Last Quarter
Feb 10
New

Hourly Weather History & Observations

Time (CST) Temp. Windchill Dew Point Humidity Pressure Visibility Wind Dir Wind Speed Gust Speed Precip Events Conditions
12:56 AM 12.9 °F 3.8 °F 5.0 °F 71% 30.34 in 10.0 mi NW 5.8 mph - N/A   Partly Cloudy
1:56 AM 15.1 °F - 6.1 °F 68% 30.36 in 10.0 mi Calm Calm - N/A   Mostly Cloudy
2:56 AM 16.0 °F 8.8 °F 3.9 °F 59% 30.38 in 10.0 mi NNW 4.6 mph - N/A   Overcast
3:56 AM 17.1 °F - 8.1 °F 68% 30.37 in 10.0 mi Calm Calm - N/A   Overcast
4:56 AM 17.1 °F 11.7 °F 7.0 °F 65% 30.40 in 10.0 mi ENE 3.5 mph - N/A   Overcast
5:56 AM 17.1 °F - 7.0 °F 65% 30.41 in 10.0 mi Calm Calm - N/A   Overcast
6:56 AM 18.0 °F - 8.1 °F 65% 30.42 in 10.0 mi Calm Calm - N/A   Overcast
7:51 AM 19.4 °F - 6.8 °F 58% 30.36 in 10.0 mi Calm Calm - N/A   Overcast
7:56 AM 19.9 °F - 8.1 °F 60% 30.43 in 10.0 mi Calm Calm - N/A   Overcast
8:56 AM 19.9 °F 14.9 °F 10.0 °F 65% 30.44 in 10.0 mi SSW 3.5 mph - N/A   Scattered Clouds
9:56 AM 23.0 °F 15.8 °F 15.1 °F 72% 30.46 in 10.0 mi SW 5.8 mph - N/A   Partly Cloudy
10:56 AM 25.0 °F 18.1 °F 19.9 °F 81% 30.46 in 10.0 mi WSW 5.8 mph - N/A   Mostly Cloudy
11:56 AM 28.9 °F 21.1 °F 23.0 °F 78% 30.43 in 10.0 mi WSW 8.1 mph - N/A   Mostly Cloudy
12:56 PM 28.9 °F 22.8 °F 25.0 °F 85% 30.44 in 10.0 mi SW 5.8 mph - N/A   Overcast
1:13 PM 28.4 °F 23.3 °F 24.8 °F 86% 30.35 in 10.0 mi Variable 4.6 mph - N/A   Mostly Cloudy
1:43 PM 30.2 °F 25.4 °F 26.6 °F 86% 30.35 in 10.0 mi SW 4.6 mph - N/A   Mostly Cloudy
1:56 PM 30.0 °F 25.2 °F 26.1 °F 85% 30.41 in 10.0 mi SSW 4.6 mph - N/A   Mostly Cloudy
2:33 PM 30.2 °F 26.7 °F 26.6 °F 86% 30.33 in 10.0 mi SW 3.5 mph - N/A   Mostly Cloudy
2:56 PM 30.0 °F 25.2 °F 27.0 °F 88% 30.40 in 10.0 mi South 4.6 mph - N/A   Mostly Cloudy
3:11 PM 30.2 °F 25.4 °F 26.6 °F 86% 30.32 in 10.0 mi South 4.6 mph - N/A   Mostly Cloudy
3:56 PM 32.0 °F - 27.0 °F 82% 30.40 in 10.0 mi Calm Calm - N/A   Overcast
4:03 PM 32.0 °F - 26.6 °F 80% 30.33 in 10.0 mi Calm Calm - N/A   Overcast
4:56 PM 32.0 °F 25.6 °F 27.0 °F 82% 30.40 in 10.0 mi East 6.9 mph - N/A   Overcast
5:56 PM 30.9 °F 25.2 °F 26.1 °F 82% 30.39 in 10.0 mi SE 5.8 mph - N/A   Overcast
6:16 PM 30.2 °F 24.3 °F 26.6 °F 86% 30.31 in 10.0 mi SE 5.8 mph - N/A   Scattered Clouds
6:56 PM 28.9 °F 22.8 °F 25.0 °F 85% 30.38 in 10.0 mi SE 5.8 mph - N/A   Mostly Cloudy
7:09 PM 30.2 °F 24.3 °F 26.6 °F 86% 30.31 in 10.0 mi SE 5.8 mph - N/A   Mostly Cloudy
7:31 PM 28.4 °F 20.4 °F 24.8 °F 86% 30.30 in 10.0 mi SE 8.1 mph - N/A   Mostly Cloudy
7:56 PM 28.9 °F 21.9 °F 25.0 °F 85% 30.35 in 10.0 mi SSE 6.9 mph - N/A   Clear
8:56 PM 28.9 °F 20.4 °F 26.1 °F 89% 30.32 in 10.0 mi SSE 9.2 mph - N/A   Scattered Clouds
9:56 PM 28.0 °F 19.3 °F 26.1 °F 92% 30.27 in 10.0 mi South 9.2 mph - N/A   Overcast
10:56 PM 30.0 °F 20.0 °F 27.0 °F 88% 30.21 in 10.0 mi South 12.7 mph - N/A   Clear
11:56 PM 30.9 °F 19.4 °F 27.0 °F 85% 30.17 in 10.0 mi South 17.3 mph - N/A   Clear